Location: Arbon
(43.0005°N, 0.7472°E)
Time: 09:57:03
(UTC+00:00)

Vanguard 2 Rocket - Pass Details

Date: 03 December 2020
Orbit: 554 x 3325 km, 32.9° (Epoch: 21 January)

Event Time Altitude Azimuth Distance (km) Brightness Sun altitude
Rises 04:27:24 0° 205° (SSW) 6,096 10.9 -29.2°
Reaches altitude 10° 04:31:47 10° 195° (SSW) 5,436 10.7 -28.4°
Maximum altitude 04:45:55 31° 141° (SE) 4,608 10.8 -25.8°
Drops below altitude 10° 05:01:53 10° 89° (E) 6,194 12.2 -22.9°
Sets 05:07:15 0° 81° (E) 7,039 12.7 -22.0°
